RH
72 77 83 80 64 68 76 68 72 68 85 85 79 74 69 63 62 62 59 56 44 41 42 37 36 28 36 33 32 30 42 33 26 34 27 26 26 26 25 25 31 34 36 42 66
92 86 73 62 59 64 78 70 90 91 93 92 87 85 76 66 62 58 47 50 41 40 41 43 34 32 38 35 34 34 43 31 28 32 30 27 26 26 25 26 27 28 31 37 54
63 63 62 64 70 79 84 89 97 97 96 84 79 71 68 63 57 52 44 44 44 50 48 40 33 35 40 38 35 36 32 28 31 32 31 30 28 26 27 30 24 23 25 38 59
57 58 60 66 69 71 70 72 84 88 75 71 64 59 55 55 64 46 48 45 51 45 42 38 47 40 38 43 33 30 32 33 29 27 30 32 28 27 27 23 22 22 24 36 55
53 55 58 63 64 68 70 67 68 73 70 61 56 47 52 58 53 38 34 34 34 35 36 39 46 38 36 35 32 30 33 29 26 25 28 27 28 29 25 23 24 22 24 35 52
50 52 54 56 59 61 58 57 50 51 50 47 44 46 54 57 44 33 32 32 32 33 33 40 42 33 31 36 31 31 28 25 23 24 23 25 26 24 21 21 23 24 23 31 41
41 45 46 46 45 46 45 47 41 39 39 40 43 49 51 45 39 35 35 34 34 35 36 40 41 34 31 36 26 25 27 25 24 23 23 21 24 26 22 19 23 24 26 31 32
37 38 37 36 35 36 37 38 37 35 36 40 47 50 60 40 39 36 32 33 34 39 42 40 40 34 32 26 26 29 29 29 26 24 23 19 25 14 18 20 21 24 27 27 26
30 32 31 31 33 33 31 33 35 33 37 42 44 63 52 47 36 40 38 30 32 35 35 35 33 31 29 40 46 33 34 29 27 28 25 20 22 15 22 22 22 22 23 24 24
23 25 27 31 27 28 35 30 32 32 34 36 50 52 54 48 36 44 44 32 27 29 32 31 32 46 56 61 57 38 27 27 27 30 25 25 30 26 19 23 22 20 21 22 22
19 20 24 27 27 26 29 34 38 39 43 40 41 52 57 48 40 48 51 32 27 26 38 40 44 56 41 42 34 31 25 25 31 34 28 28 31 25 21 19 18 16 16 17 19
15 19 22 22 23 22 26 29 32 40 34 39 39 41 54 35 42 44 48 41 33 43 38 48 42 41 42 35 28 25 25 26 32 36 28 35 31 24 22 20 15 15 15 14 15
15 18 18 18 24 23 25 25 36 32 31 27 29 28 47 34 44 53 54 54 47 44 48 45 42 39 35 47 40 46 28 34 33 30 34 31 23 19 15 22 22 22 20 19 18
13 14 14 14 23 32 32 33 28 30 70 38 29 27 26 33 41 50 60 59 49 42 48 50 45 39 39 43 49 33 48 39 30 36 32 34 39 18 13 16 19 16 19 20 19
12 12 12 13 15 22 24 23 21 32 67 30 26 27 27 34 31 37 66 49 57 49 45 52 50 45 47 52 53 47 46 47 46 62 45 32 57 24 19 15 14 20 22 22 21
21 14 11 11 12 13 14 17 24 68 50 37 29 31 29 27 28 32 37 42 43 50 53 55 51 57 50 55 55 56 44 61 66 65 55 42 40 36 16 13 19 22 21 22 21
27 12 16 15 14 16 13 22 69 80 28 42 36 31 29 32 27 32 29 34 69 54 42 47 58 56 54 46 45 38 55 62 60 66 52 74 69 32 18 19 25 27 24 24 26
22 26 28 23 18 18 17 49 46 28 31 29 33 31 29 28 34 36 30 38 34 57 54 56 52 58 63 56 44 54 60 68 39 46 59 66 56 40 29 26 28 30 31 29 28
22 29 33 21 18 20 36 69 40 30 33 31 30 33 29 28 36 33 39 44 34 38 31 43 41 59 64 58 52 44 51 43 71 90 64 59 34 24 31 43 37 30 24 22 20
30 26 34 29 25 28 45 46 35 39 38 32 27 29 40 32 33 27 32 34 31 34 37 42 49 59 64 53 53 43 48 47 74 18 30 48 40 53 46 55 50 41 32 27 25
30 37 45 38 38 37 57 38 41 37 43 36 26 24 28 24 27 28 28 32 33 32 26 29 34 46 58 63 56 61 68 65 60 65 54 55 56 63 68 57 42 38 32 32 29
42 32 50 41 36 51 43 38 35 35 40 37 31 25 24 24 23 29 25 25 33 26 19 29 30 55 37 49 47 47 44 46 63 44 85 80 63 49 50 50 38 37 34 33 31
32 40 44 42 43 39 41 34 40 39 40 34 33 30 28 26 26 29 35 38 34 29 30 33 28 53 43 57 56 62 53 48 61 71 84 70 65 49 42 43 41 44 39 38 36
28 42 32 34 33 35 35 33 33 39 36 34 32 32 28 28 29 36 41 44 39 36 44 31 37 28 31 24 57 56 61 56 43 76 66 72 54 41 42 52 52 43 43 42 42
25 40 39 41 35 40 38 36 36 37 38 36 38 31 30 32 33 32 41 50 48 51 45 41 33 45 42 44 56 49 47 65 61 48 52 46 62 40 43 56 50 51 50 48 46
31 34 38 45 47 40 43 45 36 35 37 35 33 38 37 30 28 35 44 50 44 59 43 60 43 47 54 49 53 59 57 53 58 50 48 43 49 44 44 50 56 59 58 60 58
39 41 50 38 54 41 38 35 39 36 36 32 34 42 44 40 30 29 30 35 40 59 58 62 55 62 65 61 59 68 60 51 54 57 51 57 47 48 50 58 67 72 70 70 64
Wind_Speed
6 7 10 13 13 10 10 8 8 10 10 10 12 11 13 16 17 16 16 16 11 18 11 12 12 12 10 8 6 6 4 2 4 6 4 6 4 5 4 7 8 6 3 3 15
9 10 12 13 11 9 9 9 8 7 8 10 10 11 12 14 17 22 18 14 13 14 13 11 12 13 6 7 7 4 4 8 5 4 2 4 4 11 5 4 6 7 9 8 15
10 10 11 10 8 5 5 4 6 7 5 4 6 8 10 11 12 17 17 16 13 13 10 10 12 13 5 6 6 6 5 5 3 4 3 3 3 7 8 4 11 12 13 14 19
10 9 8 8 7 6 5 4 7 8 7 6 5 6 7 6 5 4 7 15 14 13 12 11 14 10 5 5 7 5 4 4 1 1 3 2 3 3 10 6 4 10 9 16 21
10 9 7 7 6 6 5 5 4 1 5 5 5 6 6 6 12 6 8 9 13 14 15 14 17 7 5 5 7 3 4 4 2 1 1 2 3 5 12 13 12 8 12 17 20
9 8 7 6 5 4 3 1 3 2 2 4 6 5 6 5 5 10 8 10 13 14 15 17 12 10 4 6 2 5 5 4 2 1 2 2 3 2 5 11 14 12 14 18 19
7 7 5 5 4 5 4 5 1 1 4 3 4 4 8 12 9 5 3 7 10 13 14 18 10 7 6 5 6 9 4 2 3 1 2 3 7 9 11 5 11 12 14 18 18
8 6 6 6 7 6 6 5 3 1 2 1 5 3 7 6 6 4 3 6 11 12 12 16 12 6 1 13 5 5 4 3 1 1 1 3 9 3 5 12 13 14 16 18 20
9 8 8 7 4 5 5 4 0 2 3 7 7 5 10 11 3 7 10 3 9 12 12 11 10 3 5 6 4 6 4 4 1 3 1 4 8 3 3 8 14 18 20 22 22
8 8 7 4 3 5 6 3 6 6 3 2 3 2 6 5 4 6 16 7 9 16 13 7 4 3 2 4 6 7 4 2 3 1 2 2 13 9 17 8 14 16 19 23 26
9 7 5 4 6 6 2 6 3 3 2 4 3 4 6 10 5 9 19 12 9 8 4 2 4 5 5 1 2 7 5 5 1 1 0 4 9 16 12 16 23 26 25 26 28
8 7 4 2 5 5 6 5 4 3 3 3 2 3 3 9 1 7 16 11 7 4 2 6 2 0 2 2 3 4 5 3 1 2 0 4 11 14 7 12 23 24 21 22 25
3 3 6 7 6 2 8 6 2 1 2 1 2 2 3 7 6 8 11 9 7 5 4 6 1 1 3 6 4 4 4 3 2 2 3 6 7 7 5 6 8 9 11 11 13
6 5 5 4 1 2 4 8 6 2 4 6 4 4 4 3 7 1 9 6 5 4 3 6 5 3 4 5 2 4 2 4 4 4 3 4 5 6 6 10 5 13 12 9 8
8 8 6 5 2 5 4 4 1 1 3 3 3 3 5 5 4 5 10 5 2 3 3 1 3 4 6 1 2 3 4 4 3 5 3 3 3 8 3 8 4 8 2 4 6
7 5 5 5 6 4 3 3 0 5 4 3 3 3 3 4 2 9 10 9 4 2 5 3 2 4 2 3 3 5 5 6 5 3 2 1 4 5 5 4 1 4 9 6 7
5 2 2 2 4 3 3 4 5 4 3 4 2 3 3 2 2 2 1 2 4 4 2 2 2 2 4 4 4 5 5 2 5 3 5 3 2 10 3 2 2 6 12 9 6
1 1 2 1 2 4 8 5 3 1 2 2 2 0 2 2 2 4 3 1 3 2 3 4 4 4 5 3 3 2 4 5 6 3 4 4 6 6 2 6 6 5 6 8 5
3 4 4 2 5 9 4 4 5 3 1 1 2 1 3 1 3 2 2 4 2 1 5 4 1 2 4 2 2 2 0 3 8 1 3 3 7 7 2 8 14 11 13 12 8
3 2 7 2 4 10 4 4 3 3 2 1 0 1 1 2 2 1 0 1 0 2 3 4 3 2 1 1 5 1 3 4 3 1 4 5 6 5 4 7 7 10 16 17 15
2 2 4 1 4 2 3 5 4 3 2 3 2 0 1 2 1 1 2 1 1 2 3 4 4 1 0 5 7 2 1 4 3 3 5 1 6 5 5 2 4 9 15 16 16
2 1 2 4 2 3 2 4 4 4 1 2 0 2 2 1 2 2 1 3 1 3 3 1 4 3 3 2 1 1 3 5 4 4 1 3 7 2 5 3 7 14 15 17 17
3 1 1 1 2 0 2 1 1 2 3 5 5 2 2 4 2 1 1 3 1 1 4 4 1 2 5 5 4 5 5 3 4 3 7 5 6 1 0 5 10 9 13 17 18
2 1 2 2 2 6 4 3 3 3 2 2 1 2 3 2 1 4 3 3 4 4 3 4 4 5 6 4 5 4 5 6 5 3 5 7 5 4 4 7 13 17 16 14 18
1 3 3 2 1 3 3 6 4 5 4 6 1 4 4 2 2 1 2 2 3 2 1 3 3 4 5 4 4 5 7 10 11 7 10 7 10 7 1 1 7 10 11 16 21
4 2 2 2 2 4 4 7 8 4 7 4 4 6 7 5 7 8 6 4 6 3 2 4 3 2 5 6 6 6 14 13 16 14 13 14 13 6 6 11 9 11 14 18 21
6 4 2 2 2 3 4 5 6 5 6 4 6 5 3 7 8 4 8 4 6 9 8 6 5 3 5 0 4 5 15 13 3 5 8 12 8 7 4 8 9 11 14 16 18
Wind_Direction
335 323 319 316 316 302 285 281 253 236 239 248 247 256 261 267 271 270 255 251 262 248 241 219 218 201 188 184 164 142 72 199 226 155 244 178 154 166 179 151 182 199 210 212 191
327 323 321 321 327 323 307 266 239 235 240 244 254 266 277 272 273 268 262 253 251 244 238 216 207 194 191 189 171 122 133 213 198 199 233 209 192 166 163 177 210 214 217 212 194
326 329 327 331 338 338 348 279 238 227 223 254 268 271 277 282 287 271 267 236 233 227 223 214 196 182 209 182 182 158 178 199 211 208 244 208 202 178 153 222 219 220 217 200 194
333 337 337 340 340 351 14 19 250 209 237 281 241 265 278 253 233 257 218 208 217 223 214 209 182 170 186 182 178 142 211 173 102 196 180 203 199 212 209 217 204 229 230 206 199
341 343 347 346 347 2 15 41 47 178 240 258 261 282 262 241 248 285 255 242 227 213 211 204 185 171 192 180 140 171 172 158 136 78 216 233 251 253 257 245 243 235 217 210 205
348 348 355 356 353 356 352 356 67 81 212 255 272 256 238 264 251 294 275 251 215 206 207 200 199 195 186 174 164 165 121 112 94 72 358 309 251 262 258 249 236 232 223 212 212
353 350 353 353 351 328 323 306 323 313 288 283 272 179 253 263 308 314 250 219 204 200 206 200 202 194 163 127 123 119 85 55 51 44 356 342 298 235 243 264 225 224 213 211 215
346 348 333 330 325 317 317 305 310 284 272 63 127 278 265 288 323 11 106 176 189 186 195 197 203 204 194 129 67 80 57 121 316 86 25 101 265 314 254 229 228 225 220 220 224
331 331 328 328 329 338 337 334 136 89 140 154 131 177 286 311 323 47 53 131 165 168 166 184 165 148 132 101 57 16 178 195 270 57 337 160 264 265 305 226 240 236 233 235 236
324 332 330 312 304 340 6 95 106 91 107 142 141 173 301 306 353 30 35 82 132 140 131 149 140 90 50 89 185 182 179 215 197 303 143 214 267 275 273 254 255 255 247 244 245
319 321 310 288 276 293 260 122 129 153 212 231 225 239 202 330 85 37 23 92 112 140 116 74 103 182 207 256 178 142 140 154 113 98 211 241 275 278 271 270 267 260 253 251 250
323 320 319 339 303 249 231 246 261 178 129 91 166 242 353 11 8 29 6 41 43 66 79 36 115 110 276 26 104 115 132 159 82 26 22 17 287 279 246 251 264 272 272 265 261
326 307 311 323 329 239 223 253 220 1 42 276 318 315 26 28 23 337 359 7 54 45 360 133 107 321 90 43 78 39 141 158 121 3 62 337 295 317 305 261 271 268 275 276 280
289 272 285 309 294 110 117 148 151 248 66 300 356 19 16 102 57 156 282 9 39 91 39 84 338 78 86 77 20 138 347 91 74 79 220 10 273 304 294 294 276 280 261 274 292
305 302 291 269 257 219 201 189 284 28 21 268 308 331 355 73 138 64 210 290 314 20 89 248 32 66 73 17 338 136 60 72 64 84 51 354 69 265 338 291 344 337 298 273 300
297 294 284 263 260 241 227 192 192 45 265 347 314 348 60 15 73 137 171 199 128 96 35 112 82 52 88 59 44 153 71 47 52 77 35 153 137 282 231 215 332 358 11 337 338
304 310 316 268 254 227 160 150 39 137 355 286 341 6 103 27 102 73 159 100 163 105 29 17 23 33 56 81 22 60 58 348 350 6 227 334 51 241 307 280 279 315 332 346 333
110 39 14 80 200 189 151 59 92 187 218 324 336 103 119 13 44 30 99 150 152 182 125 127 321 15 359 56 185 106 146 155 210 204 264 351 234 248 265 354 319 39 2 1 348
132 68 14 52 148 161 161 71 208 203 312 135 356 38 334 17 125 100 123 174 240 301 122 112 316 10 46 29 78 209 86 140 101 61 43 260 288 321 60 25 50 45 39 26 8
209 273 13 45 144 158 89 211 220 215 182 157 117 186 212 299 45 63 210 283 208 8 15 173 63 3 18 65 45 108 154 66 357 169 274 297 286 235 353 11 15 14 20 14 20
192 198 355 152 148 173 141 201 215 234 209 148 159 158 175 167 127 182 172 168 191 149 81 133 112 272 55 200 181 127 2 59 110 127 166 225 265 215 211 272 12 336 12 9 7
253 21 350 160 21 2 134 189 160 176 206 300 174 160 189 172 64 64 40 204 120 142 110 42 136 173 232 13 78 169 204 161 125 242 85 149 273 281 210 211 329 353 11 3 5
302 147 21 170 112 32 276 331 272 148 202 173 195 252 241 174 127 190 260 338 149 111 160 189 149 43 344 354 348 230 199 158 105 95 200 139 261 178 102 325 356 359 23 39 34
286 15 164 162 92 139 160 200 201 222 229 220 187 147 148 141 22 169 158 213 201 195 170 159 176 194 199 203 134 186 192 194 161 140 182 219 245 204 327 357 13 44 51 43 37
255 206 176 242 233 152 162 160 169 214 220 192 204 236 170 167 20 239 140 128 162 153 154 144 239 187 259 224 199 216 214 190 199 206 201 243 198 249 245 103 58 51 42 36 31
304 187 186 214 211 176 175 213 193 185 153 229 227 182 181 197 195 198 159 193 212 15 115 14 240 112 282 271 234 248 249 243 224 238 246 267 272 204 146 121 78 52 41 30 22
345 324 280 199 153 128 228 194 207 168 210 188 182 135 198 236 236 217 208 178 175 157 185 166 164 143 261 289 254 261 240 226 186 201 219 235 235 161 139 112 69 52 40 26 15